Starlink 11397

operational
NORAD ID: 62590 Int'l Des: 2025-008 Owner: SPXS Country: US Constellation: starlink
LEOCIRCULAR

关于 Starlink 11397

正在加载描述...

实时位置

正在加载3D地球...

即将过境

高度历史

Altitude vs Time

uPlot chart will show altitude changes over time

两行轨道根数

1 62590U 25008D 25308.00002315 -.00081496 00000-0 -63686-3 0 9998
2 62590 43.0001 163.3246 0001552 273.4865 15.0777 15.70876811 5898
Epoch: Nov 4, 2025 • Age: 16 hours

当前状态

高度 360.8 km
速度 7.70 km/s
星下点 42.86°N, 26.08°W
发射日期 Jan 13, 2025
运行时间 0.8 years
类型 internet

技术详情

分类 Payload
质量 960.00 kg
干质量 910.00 kg
总质量 960.00 kg
长度 0.30 m
直径 4.10 m
跨度 29.00 m
形状 Box + pan
制造商 SPXS
平台类型 Starlink V2MD
阶段状态 In Orbit
所有者/国家 SPXS/US

大型星座

Loading constellations...